RH
71 72 72 72 72 72 71 73 75 74 72 72 71 73 75 75 76 76 74 74 73 73 76 69 68 66 32 25 24 17 37 34 32 40 36 43 50 54 52 52 50 46 52 48 48 46 47
70 71 71 71 73 72 72 72 74 74 72 72 72 72 76 76 74 76 78 76 70 72 69 66 59 56 26 24 18 18 23 26 30 41 39 37 37 42 53 57 51 46 45 47 50 47 46
70 70 70 70 72 73 72 73 74 74 72 73 73 72 76 73 70 71 71 73 63 58 62 60 61 18 24 22 18 18 18 28 27 29 40 34 36 39 44 54 44 41 46 42 37 39 52
70 70 70 71 71 72 72 72 74 73 72 73 75 72 73 74 73 72 72 71 65 65 62 59 61 28 35 27 21 18 19 22 23 25 32 26 24 22 25 28 46 58 56 67 33 34 51
69 70 70 71 71 71 70 71 73 73 72 74 76 76 71 72 71 75 72 69 65 55 53 50 26 28 36 29 23 21 20 23 29 26 29 17 21 26 27 33 41 37 51 62 38 25 29
70 69 70 71 71 72 70 70 72 72 73 74 78 77 71 71 74 72 72 71 63 43 26 16 18 36 25 27 29 21 22 26 31 32 28 28 36 31 32 32 29 52 27 21 22 25 23
70 71 70 71 71 72 71 71 72 71 73 74 78 77 72 74 74 70 65 47 50 35 31 28 31 28 28 27 24 20 24 27 26 26 34 33 34 36 36 29 25 24 24 23 26 26 24
70 70 70 71 71 72 72 72 72 72 71 74 77 80 73 72 71 67 59 56 56 40 37 33 28 28 24 29 26 22 26 25 26 29 35 32 30 29 29 26 21 21 22 22 22 29 24
73 72 70 70 71 72 74 74 73 71 72 75 79 82 74 75 66 55 59 61 62 65 44 35 30 27 26 26 30 27 25 27 28 28 32 33 27 24 25 28 19 26 29 34 31 32 33
74 74 74 71 72 73 74 74 75 73 78 81 81 80 74 72 45 53 55 54 59 73 71 51 40 30 25 33 32 24 24 28 24 31 30 28 27 26 26 26 24 19 28 28 30 34 32
74 75 75 76 73 74 74 73 73 74 79 80 82 74 71 59 46 48 54 58 65 68 67 42 38 26 29 25 30 26 27 24 24 26 33 31 30 30 27 24 26 23 30 34 35 40 50
78 77 77 77 77 74 75 74 74 77 77 80 81 75 66 44 53 56 60 75 76 78 65 51 38 33 30 28 28 29 28 25 25 26 26 29 28 30 28 27 31 29 31 36 42 45 82
84 82 80 79 78 78 76 75 76 75 77 80 80 74 52 38 44 52 82 75 70 78 36 43 43 34 28 27 28 30 30 30 24 28 25 31 32 31 26 28 30 32 43 62 60 86 56
88 87 86 82 81 79 78 75 72 73 78 80 80 74 46 37 55 75 77 58 58 50 42 38 36 33 34 24 26 30 33 36 33 27 29 29 45 33 26 24 26 37 38 68 31 60 68
90 90 88 87 83 81 79 76 72 78 79 80 74 65 49 40 48 72 59 74 58 49 36 32 34 30 32 30 22 29 37 36 39 37 24 25 28 33 27 30 28 33 44 36 67 66 92
91 91 90 89 86 84 81 77 73 77 78 78 59 61 54 43 56 64 61 62 47 40 32 32 24 24 22 25 20 23 32 36 37 33 37 35 20 33 35 35 37 31 29 54 80 64 62
92 92 92 91 90 89 86 79 74 72 76 71 64 53 48 48 58 52 60 61 47 36 36 33 31 24 21 20 20 21 21 37 38 35 35 37 38 39 33 40 47 44 57 40 52 67 78
96 95 93 92 92 90 88 82 72 69 70 54 56 71 52 56 46 56 48 40 41 38 37 36 32 29 22 24 22 24 26 36 35 36 39 40 44 63 40 40 44 49 57 48 64 64 68
97 97 95 94 94 95 95 88 81 68 58 44 43 53 57 52 42 48 47 44 40 40 39 33 33 32 27 23 18 26 38 44 36 35 41 49 65 65 47 49 66 61 46 45 50 63 69
92 94 98 98 98 98 97 95 90 76 59 76 74 76 60 42 46 43 47 46 39 44 38 32 32 29 27 26 24 27 45 44 40 39 38 36 47 47 36 45 50 58 48 59 65 90 72
94 92 93 97 98 98 98 97 92 85 68 91 93 89 60 63 47 44 47 49 45 39 41 34 36 32 27 28 30 30 43 49 47 39 53 40 60 58 46 56 54 53 49 57 61 58 74
92 94 94 92 95 98 98 98 95 90 73 95 96 93 74 75 59 52 52 54 50 47 41 42 39 36 32 22 26 35 39 47 48 49 60 50 59 55 59 51 51 63 52 58 56 51 62
91 91 91 94 94 93 96 98 96 87 83 97 96 90 91 88 65 60 57 49 61 49 46 36 36 36 36 30 30 38 36 37 36 56 64 54 65 74 77 51 56 75 70 53 67 52 55
91 92 91 92 93 94 94 97 95 90 88 96 95 96 98 97 84 73 82 64 57 55 40 38 32 30 39 35 35 36 38 36 43 48 44 56 66 69 84 65 79 61 52 48 44 51 50
85 89 91 92 92 93 93 95 96 92 88 97 97 96 96 98 86 75 79 76 51 41 38 39 41 38 34 33 35 39 50 51 51 43 50 47 76 74 84 89 53 71 55 57 50 43 64
79 83 86 89 92 93 94 93 97 92 90 97 98 97 97 97 94 56 59 51 56 45 48 54 45 38 38 34 28 46 43 45 66 65 46 50 60 78 88 95 84 64 59 52 54 76 64
76 79 84 86 87 92 94 94 98 92 90 94 98 95 97 99 80 54 49 50 51 63 90 58 50 47 43 39 36 48 46 35 62 69 70 73 78 90 89 97 86 61 56 53 74 62 71
78 80 83 85 85 86 93 94 96 92 91 92 98 94 97 98 94 87 77 57 60 92 93 66 56 53 57 68 66 59 62 57 70 58 70 81 84 94 90 97 96 57 62 72 72 80 73
79 81 83 84 86 86 88 94 96 92 91 87 98 90 93 99 97 83 63 62 64 64 67 68 71 59 65 76 94 86 75 87 75 66 60 75 72 82 78 68 52 54 61 75 82 84 87
Wind_Speed
15 15 15 15 15 16 16 16 15 16 16 16 15 14 14 12 8 7 7 7 7 6 5 5 7 7 4 8 3 8 19 15 8 7 8 5 6 3 3 3 4 5 5 6 7 11 8
15 15 15 15 16 16 16 16 16 16 16 15 15 15 14 13 10 9 8 8 8 6 6 7 9 4 5 6 4 9 10 7 8 6 7 8 4 3 3 4 4 4 7 8 5 6 4
14 15 15 15 16 16 17 17 17 17 17 16 15 14 13 11 11 10 10 8 8 6 7 7 9 5 9 3 2 9 10 3 5 4 4 3 4 3 1 4 3 7 6 4 4 3 4
13 14 15 15 16 16 16 16 16 17 17 16 14 13 12 10 9 9 8 8 9 9 9 7 5 5 4 0 4 9 9 5 8 4 2 5 5 6 6 4 4 2 4 2 3 3 6
12 13 14 15 16 17 17 17 17 17 17 17 16 14 13 12 10 9 8 7 10 4 7 6 6 6 1 4 6 6 5 4 8 4 6 4 8 6 8 4 4 7 1 2 2 5 2
11 12 13 13 15 17 18 18 18 18 19 19 17 16 15 14 11 10 11 5 9 9 8 3 3 4 5 5 5 6 7 5 2 3 6 9 7 6 6 6 3 2 2 2 3 6 5
13 14 14 15 15 16 17 18 18 18 18 17 17 15 15 12 9 9 6 4 4 7 10 4 2 3 3 7 3 10 6 7 6 9 5 6 10 4 2 2 1 2 2 4 2 3 2
11 12 15 16 17 17 17 17 18 18 18 19 17 15 14 13 11 9 4 4 3 1 6 2 4 3 2 2 5 14 9 6 8 5 3 7 5 3 4 4 3 2 2 4 5 5 5
10 12 13 14 15 16 18 19 19 20 21 21 20 16 14 12 6 5 4 3 3 2 5 2 2 3 3 4 3 9 7 3 5 7 6 6 5 2 3 4 4 2 1 1 4 7 4
11 10 11 12 13 14 15 17 19 20 19 20 21 19 18 13 5 1 2 3 4 1 4 1 1 3 3 3 3 2 5 2 5 4 4 5 3 1 3 3 1 2 4 2 4 4 3
10 10 10 11 13 14 14 14 16 17 17 19 20 18 18 8 1 3 1 5 4 2 4 1 1 1 3 5 1 6 3 5 4 3 3 1 1 2 2 2 2 4 3 4 4 4 2
8 10 10 9 11 12 15 16 16 16 16 17 17 16 16 5 3 2 4 4 3 5 7 2 2 1 2 5 4 4 6 7 3 4 6 3 2 2 1 1 2 5 5 2 3 3 1
9 10 10 10 10 12 12 14 16 16 16 17 16 11 6 2 3 6 3 3 5 4 3 2 2 2 3 3 3 4 4 6 2 1 2 1 1 1 3 1 2 8 5 4 5 4 5
10 10 10 11 11 10 12 13 14 17 16 16 14 8 3 2 3 3 3 4 3 1 4 1 2 1 1 1 0 4 3 2 5 3 3 1 5 1 1 3 1 2 2 5 6 4 5
12 12 11 9 10 10 10 11 14 13 15 14 12 2 2 2 2 3 5 1 6 1 3 4 0 1 1 1 0 2 2 4 1 2 3 2 3 1 1 2 4 3 3 2 2 3 3
14 14 12 12 10 10 10 9 12 14 15 16 2 2 2 0 2 4 5 6 2 3 3 2 5 1 3 4 2 3 3 4 4 2 2 4 3 4 3 2 1 1 6 4 2 3 7
15 16 15 13 12 10 9 9 9 12 15 8 3 4 1 2 3 5 4 5 2 1 2 1 3 3 3 4 4 3 3 2 4 3 3 3 3 0 3 6 7 3 2 3 3 5 5
15 18 17 16 14 12 10 8 5 10 15 6 2 3 1 1 3 1 3 3 3 3 2 2 1 1 5 4 3 4 5 1 5 6 5 3 4 4 6 2 1 3 6 6 5 6 4
12 17 17 17 16 12 12 9 0 4 9 2 2 3 2 3 2 3 2 3 2 4 4 4 5 4 1 5 3 4 3 1 6 5 6 5 1 4 2 2 5 2 5 5 1 4 8
14 11 12 15 16 14 14 13 11 4 6 7 3 3 2 2 1 4 4 4 4 2 3 3 4 3 3 5 3 4 4 4 5 4 7 5 3 6 6 3 3 4 5 6 7 4 6
12 11 12 11 13 15 15 11 11 11 6 5 4 5 2 4 0 1 1 1 4 5 3 5 3 7 7 6 4 5 3 3 1 6 4 4 4 4 9 9 6 7 12 9 12 14 10
12 12 11 10 10 13 15 13 16 18 15 4 6 4 1 2 2 3 4 5 7 2 7 6 6 8 8 6 6 7 7 5 6 3 5 4 4 3 6 10 10 13 14 12 15 15 10
13 12 13 13 11 9 10 13 18 20 8 3 1 1 4 5 4 5 7 5 5 4 4 3 7 5 7 5 4 3 4 3 6 9 7 6 2 2 5 4 5 9 9 15 4 5 5
16 15 14 13 12 12 11 9 22 23 10 2 3 4 4 4 6 8 8 6 6 7 4 1 1 4 3 6 6 6 5 4 4 4 4 5 5 3 5 3 3 5 1 1 3 4 4
18 16 16 15 15 13 12 11 22 23 18 3 2 4 5 4 4 2 7 6 7 5 2 2 1 2 8 4 3 2 1 1 4 5 5 4 4 2 3 3 8 4 3 4 4 5 3
19 18 18 17 15 15 14 15 21 23 23 5 3 1 2 5 10 7 7 9 6 5 4 2 3 1 2 2 3 5 5 4 3 2 2 5 2 4 2 2 7 5 4 4 4 6 6
20 19 19 18 17 15 14 16 18 22 23 5 3 5 2 2 3 5 6 8 7 6 5 5 5 2 2 2 4 5 5 4 5 7 6 3 2 10 8 5 9 4 7 5 2 6 5
20 19 18 19 19 18 15 15 19 23 25 6 2 6 4 3 2 2 0 5 5 5 7 7 6 3 3 4 4 4 3 5 3 4 7 8 7 5 4 5 11 7 5 7 6 3 4
21 20 19 18 18 19 16 15 21 25 28 9 3 3 4 2 2 2 3 2 2 4 5 6 2 5 6 4 1 2 2 1 4 4 3 3 8 7 11 7 2 10 4 4 4 5 4
Wind_Direction
27 26 23 20 18 16 15 16 14 11 13 10 10 8 8 3 12 22 30 20 10 14 17 1 326 327 62 51 38 302 333 328 348 3 34 18 43 20 87 86 78 95 130 64 93 78 73
22 21 20 17 14 12 11 9 9 8 8 9 8 7 8 9 10 2 352 357 360 14 20 6 16 108 69 75 266 321 333 336 7 21 15 27 17 315 68 49 63 92 96 125 106 105 99
19 16 15 14 11 10 7 5 5 4 5 5 6 7 7 9 8 2 355 348 356 353 343 355 5 77 58 147 240 355 350 341 359 5 27 2 330 82 35 71 144 134 84 77 48 99 122
19 14 12 10 8 6 6 4 2 1 1 360 357 359 1 355 354 354 353 345 332 327 340 347 2 68 92 247 245 3 343 333 350 336 38 314 28 80 46 313 77 87 76 83 11 1 173
16 15 10 7 6 2 2 1 360 359 358 355 350 349 348 340 336 342 342 325 6 333 343 334 42 89 82 353 11 343 18 338 299 323 30 61 62 69 19 48 36 22 212 136 261 34 345
12 11 9 8 4 1 1 0 359 357 357 354 351 347 343 339 331 339 330 309 337 20 1 40 55 53 12 323 306 332 321 335 354 358 27 37 53 71 28 41 221 244 336 309 239 349 351
7 2 3 3 4 3 0 359 358 356 354 352 350 345 345 339 332 333 349 17 18 356 35 113 256 85 353 309 342 353 331 342 18 52 53 18 65 85 96 55 155 212 239 268 170 31 286
6 6 0 360 358 357 358 356 352 351 350 349 346 343 343 341 334 1 68 71 58 178 91 36 91 70 345 1 10 342 1 61 40 51 345 33 86 201 116 42 82 87 265 283 294 19 1
360 360 1 359 357 356 354 353 352 351 351 349 344 338 336 335 332 47 83 120 333 10 84 18 62 57 324 48 52 326 18 19 76 43 25 112 181 259 130 46 38 55 156 21 261 339 276
345 352 356 351 351 352 355 352 351 350 348 348 346 339 335 331 52 185 52 312 346 16 68 206 319 355 358 112 66 329 359 41 41 140 82 83 334 134 100 90 72 302 158 279 282 12 263
329 337 346 346 345 345 344 349 350 350 348 346 346 342 336 10 176 49 351 324 318 44 7 81 14 320 76 82 333 15 15 30 97 65 115 75 39 56 88 128 135 246 319 273 225 184 4
304 315 327 335 337 341 339 342 348 347 347 347 348 344 343 11 31 354 325 328 35 40 264 148 133 38 37 18 20 336 29 33 89 82 49 101 72 68 112 339 231 312 334 29 87 145 346
287 297 304 317 329 332 337 339 340 345 343 342 342 350 10 3 346 328 352 34 18 151 53 193 223 90 88 15 9 31 40 19 67 44 2 55 129 5 33 54 18 26 23 339 341 350 244
257 266 285 299 309 321 330 333 339 339 338 335 334 338 8 96 326 13 17 42 241 192 186 103 126 95 242 127 166 20 83 55 40 63 108 66 327 131 22 72 123 57 109 149 256 270 281
250 256 257 265 289 301 316 329 330 331 332 333 330 18 17 326 37 51 70 6 247 231 107 141 69 152 223 221 298 98 77 159 127 40 116 104 224 82 74 111 131 143 101 150 84 207 10
250 247 247 258 262 279 296 317 327 328 330 333 25 9 289 346 81 78 79 257 290 12 8 7 202 174 240 192 203 193 174 168 161 154 187 175 320 200 164 118 111 158 151 76 41 309 274
255 253 248 242 247 249 262 292 322 333 332 339 34 10 248 98 55 60 197 225 259 4 42 355 300 283 260 215 196 228 189 151 168 136 68 118 112 169 100 202 176 140 129 125 150 154 198
265 261 249 242 239 237 245 262 319 347 340 58 37 336 311 69 25 9 213 203 141 176 117 205 210 269 210 181 218 262 220 295 155 141 157 179 139 245 223 358 47 159 180 153 142 260 230
295 269 257 254 239 227 232 235 112 15 48 26 327 257 349 93 234 241 272 269 266 163 206 177 202 177 139 208 233 194 165 149 147 146 163 177 200 326 248 345 350 174 191 188 148 105 205
322 321 287 259 248 233 231 223 159 156 104 100 343 328 299 59 83 158 184 227 235 214 222 193 168 129 144 205 208 207 164 188 173 161 159 153 202 209 210 212 154 203 203 203 176 182 230
304 315 318 288 259 242 237 227 177 139 137 90 140 210 187 279 53 189 27 201 192 228 231 189 220 211 177 194 181 221 131 132 186 215 127 145 235 217 262 260 231 228 241 212 212 231 219
310 311 305 313 296 269 255 234 174 151 138 95 144 176 155 222 159 114 147 226 228 241 163 233 225 191 191 188 193 187 143 175 192 161 149 176 273 321 268 256 255 255 250 234 236 249 246
292 291 302 301 287 286 268 241 169 164 132 131 109 39 143 171 169 136 192 194 262 158 221 300 196 139 194 214 135 95 97 97 159 158 173 161 206 22 266 318 334 292 233 222 206 218 194
290 285 285 287 298 300 298 250 176 181 176 117 172 130 156 231 201 197 188 172 190 204 256 161 155 145 138 108 92 67 56 87 144 183 166 152 151 162 273 340 274 244 171 190 222 228 224
288 287 280 281 281 284 296 282 191 188 180 129 173 174 161 203 195 218 203 191 131 121 111 132 39 316 148 100 98 105 351 349 202 203 190 154 128 245 256 222 300 350 195 182 177 273 180
293 289 286 280 277 281 280 290 201 195 185 114 156 286 172 138 218 142 162 185 175 145 134 95 32 10 58 148 169 207 222 178 198 169 54 153 130 159 169 229 255 224 162 118 112 273 173
292 291 290 284 279 273 273 282 211 196 184 144 179 155 159 192 220 172 173 183 153 129 125 137 155 169 339 168 195 203 224 139 183 181 174 158 195 213 226 250 281 192 148 145 138 243 177
290 289 287 287 281 270 264 280 212 193 183 161 187 174 161 183 179 306 346 175 130 147 154 146 108 198 141 191 187 214 175 207 126 182 171 171 159 204 172 228 262 148 103 170 204 186 186
293 289 285 285 285 283 261 262 202 197 182 160 136 167 87 94 56 13 35 324 31 139 144 174 154 148 165 137 184 106 166 118 161 242 135 226 184 183 185 220 157 190 174 187 154 160 217